Time,TemperatureF,DewpointF,PressureIn,WindDirection,WindDirectionDegrees,WindSpeedMPH,WindSpeedGustMPH,Humidity,HourlyPrecipIn,Conditions,Clouds,dailyrainin,SoftwareType,DateUTC
2013-03-10 00:05:00,30.9,26.1,30.30,NNE,32,0.0,0.0,82,0.00,,,0.00,Wunderground v.1.15,2013-03-10 05:05:00,
2013-03-10 00:10:00,30.9,26.3,30.30,NNE,32,0.0,1.0,83,0.00,,,0.00,Wunderground v.1.15,2013-03-10 05:10:00,
2013-03-10 00:20:00,30.5,26.2,30.29,NNE,32,0.0,0.0,84,0.00,,,0.00,Wunderground v.1.15,2013-03-10 05:20:00,
2013-03-10 00:25:00,30.3,26.0,30.29,NNE,32,0.0,0.0,84,0.00,,,0.00,Wunderground v.1.15,2013-03-10 05:25:00,
2013-03-10 00:35:00,30.2,25.9,30.29,NNE,32,1.0,1.0,84,0.00,,,0.00,Wunderground v.1.15,2013-03-10 05:35:00,
2013-03-10 00:40:00,29.9,25.7,30.29,NNE,32,1.0,1.0,84,0.00,,,0.00,Wunderground v.1.15,2013-03-10 05:40:00,
2013-03-10 00:45:00,29.6,25.6,30.29,NNE,32,1.0,1.0,85,0.00,,,0.00,Wunderground v.1.15,2013-03-10 05:45:00,
2013-03-10 00:55:00,29.9,25.9,30.29,NNE,32,1.0,1.0,85,0.00,,,0.00,Wunderground v.1.15,2013-03-10 05:55:00,
2013-03-10 01:05:00,29.6,25.9,30.29,NNE,32,0.0,0.0,86,0.00,,,0.00,Wunderground v.1.15,2013-03-10 06:05:00,
2013-03-10 01:10:00,29.6,25.9,30.29,NNE,32,0.0,0.0,86,0.00,,,0.00,Wunderground v.1.15,2013-03-10 06:10:00,
2013-03-10 01:20:00,29.3,25.6,30.30,NNE,32,0.0,1.0,86,0.00,,,0.00,Wunderground v.1.15,2013-03-10 06:20:00,
2013-03-10 01:25:00,29.1,25.4,30.29,NNE,32,0.0,0.0,86,0.00,,,0.00,Wunderground v.1.15,2013-03-10 06:25:00,
2013-03-10 01:30:00,28.8,25.4,30.29,NNE,32,1.0,1.0,87,0.00,,,0.00,Wunderground v.1.15,2013-03-10 06:30:00,
2013-03-10 01:40:00,28.8,25.4,30.29,NNE,32,1.0,1.0,87,0.00,,,0.00,Wunderground v.1.15,2013-03-10 06:40:00,
2013-03-10 01:45:00,28.7,25.3,30.29,NNE,32,1.0,1.0,87,0.00,,,0.00,Wunderground v.1.15,2013-03-10 06:45:00,
2013-03-10 01:55:00,28.7,25.3,30.29,NNE,32,0.0,1.0,87,0.00,,,0.00,Wunderground v.1.15,2013-03-10 06:55:00,
2013-03-10 03:05:00,28.5,25.4,30.29,NNE,32,1.0,1.0,88,0.00,,,0.00,Wunderground v.1.15,2013-03-10 07:05:00,
2013-03-10 03:15:00,28.4,25.3,30.29,NNE,32,1.0,1.0,88,0.00,,,0.00,Wunderground v.1.15,2013-03-10 07:15:00,
2013-03-10 03:20:00,28.5,25.4,30.29,NNE,32,1.0,1.0,88,0.00,,,0.00,Wunderground v.1.15,2013-03-10 07:20:00,
2013-03-10 03:30:00,28.4,25.3,30.28,NNE,32,1.0,1.0,88,0.00,,,0.00,Wunderground v.1.15,2013-03-10 07:30:00,
2013-03-10 03:40:00,27.8,24.4,30.28,NNE,32,0.0,1.0,87,0.00,,,0.00,Wunderground v.1.15,2013-03-10 07:40:00,
2013-03-10 03:50:00,27.5,24.4,30.27,NNE,32,1.0,1.0,88,0.00,,,0.00,Wunderground v.1.15,2013-03-10 07:50:00,
2013-03-10 04:05:00,27.7,24.9,30.26,NNE,32,1.0,1.0,89,0.00,,,0.00,Wunderground v.1.15,2013-03-10 08:05:00,
2013-03-10 04:10:00,27.7,24.6,30.26,NNE,32,1.0,1.0,88,0.00,,,0.00,Wunderground v.1.15,2013-03-10 08:10:00,
2013-03-10 04:20:00,27.4,24.3,30.26,NNE,32,1.0,1.0,88,0.00,,,0.00,Wunderground v.1.15,2013-03-10 08:20:00,
2013-03-10 04:30:00,27.2,24.1,30.25,NNE,32,0.0,1.0,88,0.00,,,0.00,Wunderground v.1.15,2013-03-10 08:30:00,
2013-03-10 04:40:00,27.1,24.0,30.26,NNE,32,1.0,1.0,88,0.00,,,0.00,Wunderground v.1.15,2013-03-10 08:40:00,
2013-03-10 04:50:00,27.1,24.3,30.26,NNE,32,0.0,1.0,89,0.00,,,0.00,Wunderground v.1.15,2013-03-10 08:50:00,
2013-03-10 05:00:00,27.1,24.3,30.27,NNE,32,0.0,0.0,89,0.00,,,0.00,Wunderground v.1.15,2013-03-10 09:00:00,
2013-03-10 05:05:00,27.4,24.3,30.27,NNE,32,0.0,0.0,88,0.00,,,0.00,Wunderground v.1.15,2013-03-10 09:05:00,
2013-03-10 05:15:00,27.5,24.1,30.27,NNE,32,0.0,0.0,87,0.00,,,0.00,Wunderground v.1.15,2013-03-10 09:15:00,
2013-03-10 05:20:00,27.4,24.0,30.28,NNE,32,0.0,0.0,87,0.00,,,0.00,Wunderground v.1.15,2013-03-10 09:20:00,
2013-03-10 05:30:00,27.1,23.7,30.28,NNE,32,1.0,1.0,87,0.00,,,0.00,Wunderground v.1.15,2013-03-10 09:30:00,
2013-03-10 05:40:00,26.8,23.7,30.28,NNE,32,1.0,1.0,88,0.00,,,0.00,Wunderground v.1.15,2013-03-10 09:40:00,
2013-03-10 05:50:00,26.8,24.3,30.28,NNE,32,2.0,2.0,90,0.00,,,0.00,Wunderground v.1.15,2013-03-10 09:50:00,
2013-03-10 05:55:00,26.9,24.4,30.28,NNE,32,1.0,2.0,90,0.00,,,0.00,Wunderground v.1.15,2013-03-10 09:55:00,
2013-03-10 06:05:00,27.1,24.6,30.28,NNE,32,1.0,2.0,90,0.00,,,0.00,Wunderground v.1.15,2013-03-10 10:05:00,
2013-03-10 06:10:00,27.1,24.6,30.28,NNE,32,0.0,0.0,90,0.00,,,0.00,Wunderground v.1.15,2013-03-10 10:10:00,
2013-03-10 06:15:00,27.2,24.4,30.28,NNE,32,0.0,0.0,89,0.00,,,0.00,Wunderground v.1.15,2013-03-10 10:15:00,
2013-03-10 06:25:00,27.2,24.4,30.28,NNE,32,0.0,0.0,89,0.00,,,0.00,Wunderground v.1.15,2013-03-10 10:25:00,
2013-03-10 06:30:00,27.1,24.3,30.28,NNE,32,0.0,1.0,89,0.00,,,0.00,Wunderground v.1.15,2013-03-10 10:30:00,
2013-03-10 06:35:00,27.2,24.4,30.28,NNE,32,1.0,1.0,89,0.00,,,0.00,Wunderground v.1.15,2013-03-10 10:35:00,
2013-03-10 06:40:00,27.2,24.1,30.28,NNE,32,1.0,1.0,88,0.00,,,0.00,Wunderground v.1.15,2013-03-10 10:40:00,
2013-03-10 06:50:00,27.1,24.3,30.28,NNE,32,1.0,2.0,89,0.00,,,0.00,Wunderground v.1.15,2013-03-10 10:50:00,
2013-03-10 06:55:00,27.2,24.4,30.28,NNE,32,2.0,2.0,89,0.00,,,0.00,Wunderground v.1.15,2013-03-10 10:55:00,
2013-03-10 07:00:00,27.4,24.6,30.27,NNE,32,3.0,4.0,89,0.00,,,0.00,Wunderground v.1.15,2013-03-10 11:00:00,
2013-03-10 07:10:00,28.0,24.9,30.27,NNE,32,2.0,2.0,88,0.00,,,0.00,Wunderground v.1.15,2013-03-10 11:10:00,
2013-03-10 07:15:00,28.0,24.6,30.27,NNE,32,1.0,2.0,87,0.00,,,0.00,Wunderground v.1.15,2013-03-10 11:15:00,
2013-03-10 07:25:00,28.0,24.9,30.27,NNE,32,1.0,1.0,88,0.00,,,0.00,Wunderground v.1.15,2013-03-10 11:25:00,
2013-03-10 07:30:00,27.7,24.3,30.28,NNE,32,1.0,1.0,87,0.00,,,0.00,Wunderground v.1.15,2013-03-10 11:30:00,
2013-03-10 07:40:00,28.0,24.6,30.28,NNE,32,0.0,1.0,87,0.00,,,0.00,Wunderground v.1.15,2013-03-10 11:40:00,
2013-03-10 07:50:00,28.1,24.7,30.27,NNE,32,0.0,0.0,87,0.00,,,0.00,Wunderground v.1.15,2013-03-10 11:50:00,
2013-03-10 07:55:00,28.3,24.6,30.28,NNE,32,0.0,1.0,86,0.00,,,0.00,Wunderground v.1.15,2013-03-10 11:55:00,
2013-03-10 08:05:00,29.3,25.9,30.28,NNE,32,1.0,2.0,87,0.00,,,0.00,Wunderground v.1.15,2013-03-10 12:05:00,
2013-03-10 08:10:00,30.0,26.3,30.29,NNE,32,0.0,0.0,86,0.00,,,0.00,Wunderground v.1.15,2013-03-10 12:10:00,
2013-03-10 08:15:00,30.6,26.3,30.29,NNE,32,0.0,0.0,84,0.00,,,0.00,Wunderground v.1.15,2013-03-10 12:15:00,
2013-03-10 08:20:00,31.4,26.8,30.29,NNE,32,1.0,1.0,83,0.00,,,0.00,Wunderground v.1.15,2013-03-10 12:20:00,
2013-03-10 08:30:00,32.4,26.9,30.29,NNE,32,0.0,0.0,80,0.00,,,0.00,Wunderground v.1.15,2013-03-10 12:30:00,
2013-03-10 08:40:00,33.1,27.0,30.30,NNE,32,0.0,0.0,78,0.00,,,0.00,Wunderground v.1.15,2013-03-10 12:40:00,
2013-03-10 08:50:00,32.1,27.2,30.30,NNE,32,2.0,2.0,82,0.00,,,0.00,Wunderground v.1.15,2013-03-10 12:50:00,
2013-03-10 08:55:00,31.9,27.3,30.30,NNE,32,2.0,2.0,83,0.00,,,0.00,Wunderground v.1.15,2013-03-10 12:55:00,
2013-03-10 09:05:00,32.8,27.9,30.31,NNE,32,1.0,2.0,82,0.00,,,0.00,Wunderground v.1.15,2013-03-10 13:05:00,
2013-03-10 09:15:00,35.0,29.1,30.31,NNE,32,2.0,4.0,79,0.00,,,0.00,Wunderground v.1.15,2013-03-10 13:15:00,
2013-03-10 09:25:00,36.6,29.1,30.31,NNE,32,3.0,3.0,74,0.00,,,0.00,Wunderground v.1.15,2013-03-10 13:25:00,
2013-03-10 09:35:00,38.3,28.3,30.30,NNE,32,2.0,5.0,67,0.00,,,0.00,Wunderground v.1.15,2013-03-10 13:35:00,
2013-03-10 09:40:00,39.5,28.7,30.30,NNE,32,3.0,7.0,65,0.00,,,0.00,Wunderground v.1.15,2013-03-10 13:40:00,
2013-03-10 09:45:00,40.1,27.7,30.30,NNE,32,3.0,7.0,61,0.00,,,0.00,Wunderground v.1.15,2013-03-10 13:45:00,
2013-03-10 09:50:00,40.6,28.2,30.30,NNE,32,2.0,3.0,61,0.00,,,0.00,Wunderground v.1.15,2013-03-10 13:50:00,
2013-03-10 10:00:00,42.5,28.3,30.30,NNE,32,2.0,2.0,57,0.00,,,0.00,Wunderground v.1.15,2013-03-10 14:00:00,
2013-03-10 10:05:00,43.6,29.8,30.30,NNE,32,1.0,2.0,58,0.00,,,0.00,Wunderground v.1.15,2013-03-10 14:05:00,
2013-03-10 10:10:00,44.2,28.6,30.30,NNE,32,1.0,2.0,54,0.00,,,0.00,Wunderground v.1.15,2013-03-10 14:10:00,
2013-03-10 10:15:00,45.1,28.0,30.30,NNE,32,1.0,2.0,51,0.00,,,0.00,Wunderground v.1.15,2013-03-10 14:15:00,
2013-03-10 10:25:00,47.6,28.9,30.30,NNE,32,1.0,4.0,48,0.00,,,0.00,Wunderground v.1.15,2013-03-10 14:25:00,
2013-03-10 10:35:00,48.9,28.5,30.30,NNE,32,2.0,3.0,45,0.00,,,0.00,Wunderground v.1.15,2013-03-10 14:35:00,
2013-03-10 10:40:00,49.7,28.6,30.29,SSE,151,3.0,6.0,44,0.00,,,0.00,Wunderground v.1.15,2013-03-10 14:40:00,
2013-03-10 10:50:00,51.0,29.3,30.29,SSE,150,5.0,5.0,43,0.00,,,0.00,Wunderground v.1.15,2013-03-10 14:50:00,
2013-03-10 10:55:00,51.6,28.0,30.29,SE,138,5.0,9.0,40,0.00,,,0.00,Wunderground v.1.15,2013-03-10 14:55:00,
2013-03-10 11:05:00,52.3,27.4,30.29,SSW,194,8.0,8.0,38,0.00,,,0.00,Wunderground v.1.15,2013-03-10 15:05:00,
2013-03-10 11:10:00,52.8,26.6,30.29,SSW,200,8.0,8.0,36,0.00,,,0.00,Wunderground v.1.15,2013-03-10 15:10:00,
2013-03-10 11:20:00,53.5,27.2,30.29,SSE,153,8.0,8.0,36,0.00,,,0.00,Wunderground v.1.15,2013-03-10 15:20:00,
2013-03-10 11:30:00,54.4,25.9,30.29,SSW,192,9.0,9.0,33,0.00,,,0.00,Wunderground v.1.15,2013-03-10 15:30:00,
2013-03-10 11:36:00,54.9,24.8,30.29,SSW,201,8.0,13.0,31,0.00,,,0.00,Wunderground v.1.15,2013-03-10 15:36:00,
2013-03-10 11:45:00,55.3,24.4,30.29,South,178,10.0,15.0,30,0.00,,,0.00,Wunderground v.1.15,2013-03-10 15:45:00,
2013-03-10 11:55:00,55.9,24.9,30.29,SE,126,10.0,16.0,30,0.00,,,0.00,Wunderground v.1.15,2013-03-10 15:55:00,
2013-03-10 12:00:00,56.0,25.8,30.29,South,175,10.0,10.0,31,0.00,,,0.00,Wunderground v.1.15,2013-03-10 16:00:00,
2013-03-10 12:10:00,56.2,25.9,30.28,South,169,10.0,10.0,31,0.00,,,0.00,Wunderground v.1.15,2013-03-10 16:10:00,
2013-03-10 12:20:00,56.5,25.4,30.28,SSE,148,10.0,10.0,30,0.00,,,0.00,Wunderground v.1.15,2013-03-10 16:20:00,
2013-03-10 12:25:00,56.5,25.4,30.28,South,178,11.0,11.0,30,0.00,,,0.00,Wunderground v.1.15,2013-03-10 16:25:00,
2013-03-10 12:30:00,56.0,25.0,30.27,South,185,11.0,11.0,30,0.00,,,0.00,Wunderground v.1.15,2013-03-10 16:30:00,
2013-03-10 12:35:00,56.3,24.4,30.27,South,169,11.0,11.0,29,0.00,,,0.00,Wunderground v.1.15,2013-03-10 16:35:00,
2013-03-10 12:45:00,57.0,25.0,30.27,SSE,163,11.0,13.0,29,0.00,,,0.00,Wunderground v.1.15,2013-03-10 16:45:00,
2013-03-10 12:55:00,58.3,25.3,30.26,SW,216,11.0,15.0,28,0.00,,,0.00,Wunderground v.1.15,2013-03-10 16:55:00,
2013-03-10 13:05:00,59.1,26.0,30.26,South,187,11.0,18.0,28,0.00,,,0.00,Wunderground v.1.15,2013-03-10 17:05:00,
2013-03-10 13:10:00,59.2,25.2,30.26,SSE,155,12.0,20.0,27,0.00,,,0.00,Wunderground v.1.15,2013-03-10 17:10:00,
2013-03-10 13:20:00,59.1,26.0,30.26,SSE,155,12.0,12.0,28,0.00,,,0.00,Wunderground v.1.15,2013-03-10 17:20:00,
2013-03-10 13:30:00,59.1,26.8,30.25,ESE,119,11.0,13.0,29,0.00,,,0.00,Wunderground v.1.15,2013-03-10 17:30:00,
2013-03-10 13:40:00,59.7,25.6,30.24,South,186,10.0,12.0,27,0.00,,,0.00,Wunderground v.1.15,2013-03-10 17:40:00,
2013-03-10 13:45:00,60.2,26.1,30.24,SW,220,10.0,13.0,27,0.00,,,0.00,Wunderground v.1.15,2013-03-10 17:45:00,
2013-03-10 13:50:00,60.5,26.3,30.24,South,171,10.0,10.0,27,0.00,,,0.00,Wunderground v.1.15,2013-03-10 17:50:00,
2013-03-10 14:00:00,60.6,25.5,30.24,SE,126,10.0,11.0,26,0.00,,,0.00,Wunderground v.1.15,2013-03-10 18:00:00,
2013-03-10 14:05:00,60.3,27.0,30.23,SE,128,10.0,11.0,28,0.00,,,0.00,Wunderground v.1.15,2013-03-10 18:05:00,
2013-03-10 14:15:00,60.2,26.1,30.23,SE,134,11.0,11.0,27,0.00,,,0.00,Wunderground v.1.15,2013-03-10 18:15:00,
2013-03-10 14:25:00,60.5,26.3,30.22,SE,140,12.0,12.0,27,0.00,,,0.00,Wunderground v.1.15,2013-03-10 18:25:00,
2013-03-10 14:30:00,60.6,25.5,30.22,SE,128,11.0,11.0,26,0.00,,,0.00,Wunderground v.1.15,2013-03-10 18:30:00,
2013-03-10 14:40:00,61.0,24.9,30.22,SW,217,11.0,16.0,25,0.00,,,0.00,Wunderground v.1.15,2013-03-10 18:40:00,
2013-03-10 14:50:00,61.4,24.2,30.22,South,173,12.0,16.0,24,0.00,,,0.00,Wunderground v.1.15,2013-03-10 18:50:00,
2013-03-10 14:55:00,61.4,25.2,30.22,South,186,11.0,16.0,25,0.00,,,0.00,Wunderground v.1.15,2013-03-10 18:55:00,
2013-03-10 15:05:00,61.7,24.5,30.22,SSE,161,10.0,11.0,24,0.00,,,0.00,Wunderground v.1.15,2013-03-10 19:05:00,
2013-03-10 15:15:00,62.1,24.8,30.21,SSE,157,11.0,11.0,24,0.00,,,0.00,Wunderground v.1.15,2013-03-10 19:15:00,
2013-03-10 15:20:00,61.9,25.7,30.21,SE,132,10.0,12.0,25,0.00,,,0.00,Wunderground v.1.15,2013-03-10 19:20:00,
2013-03-10 15:30:00,62.2,24.9,30.20,South,182,9.0,20.0,24,0.00,,,0.00,Wunderground v.1.15,2013-03-10 19:30:00,
2013-03-10 15:35:00,62.4,25.1,30.20,South,180,9.0,20.0,24,0.00,,,0.00,Wunderground v.1.15,2013-03-10 19:35:00,
2013-03-10 15:45:00,62.7,24.3,30.20,SE,128,10.0,10.0,23,0.00,,,0.00,Wunderground v.1.15,2013-03-10 19:45:00,
2013-03-10 15:50:00,62.5,25.2,30.20,SW,215,10.0,10.0,24,0.00,,,0.00,Wunderground v.1.15,2013-03-10 19:50:00,
2013-03-10 16:00:00,62.5,25.2,30.20,South,190,11.0,15.0,24,0.00,,,0.00,Wunderground v.1.15,2013-03-10 20:00:00,
2013-03-10 16:10:00,61.7,24.5,30.20,SE,146,12.0,15.0,24,0.00,,,0.00,Wunderground v.1.15,2013-03-10 20:10:00,
2013-03-10 16:20:00,62.1,24.8,30.20,SE,140,9.0,11.0,24,0.00,,,0.00,Wunderground v.1.15,2013-03-10 20:20:00,
2013-03-10 16:25:00,62.2,25.9,30.20,SE,138,9.0,9.0,25,0.00,,,0.00,Wunderground v.1.15,2013-03-10 20:25:00,
2013-03-10 16:30:00,62.5,26.2,30.19,SSE,152,8.0,9.0,25,0.00,,,0.00,Wunderground v.1.15,2013-03-10 20:30:00,
2013-03-10 16:40:00,62.4,26.1,30.19,South,178,8.0,11.0,25,0.00,,,0.00,Wunderground v.1.15,2013-03-10 20:40:00,
2013-03-10 16:45:00,62.4,26.1,30.19,South,174,8.0,14.0,25,0.00,,,0.00,Wunderground v.1.15,2013-03-10 20:45:00,
2013-03-10 16:55:00,62.1,26.8,30.19,SSE,165,9.0,10.0,26,0.00,,,0.00,Wunderground v.1.15,2013-03-10 20:55:00,
2013-03-10 17:00:00,61.7,24.5,30.18,South,188,10.0,10.0,24,0.00,,,0.00,Wunderground v.1.15,2013-03-10 21:00:00,
2013-03-10 17:10:00,61.3,24.2,30.18,SE,138,10.0,14.0,24,0.00,,,0.00,Wunderground v.1.15,2013-03-10 21:10:00,
2013-03-10 17:16:00,61.1,25.0,30.18,SE,129,10.0,14.0,25,0.00,,,0.00,Wunderground v.1.15,2013-03-10 21:16:00,
2013-03-10 17:25:00,60.6,24.5,30.18,SSW,196,10.0,11.0,25,0.00,,,0.00,Wunderground v.1.15,2013-03-10 21:25:00,
2013-03-10 17:35:00,60.3,24.3,30.18,SSE,163,9.0,9.0,25,0.00,,,0.00,Wunderground v.1.15,2013-03-10 21:35:00,
2013-03-10 17:40:00,60.3,24.3,30.18,South,176,10.0,11.0,25,0.00,,,0.00,Wunderground v.1.15,2013-03-10 21:40:00,
2013-03-10 17:46:00,60.0,24.0,30.18,SSW,192,12.0,12.0,25,0.00,,,0.00,Wunderground v.1.15,2013-03-10 21:46:00,
2013-03-10 17:55:00,59.7,23.8,30.18,SE,139,11.0,12.0,25,0.00,,,0.00,Wunderground v.1.15,2013-03-10 21:55:00,
2013-03-10 18:05:00,59.4,23.5,30.18,South,175,11.0,13.0,25,0.00,,,0.00,Wunderground v.1.15,2013-03-10 22:05:00,
2013-03-10 18:10:00,59.2,24.3,30.18,SE,145,10.0,13.0,26,0.00,,,0.00,Wunderground v.1.15,2013-03-10 22:10:00,
2013-03-10 18:20:00,59.1,24.2,30.18,South,181,9.0,9.0,26,0.00,,,0.00,Wunderground v.1.15,2013-03-10 22:20:00,
2013-03-10 18:31:00,58.6,23.8,30.19,SSE,156,10.0,10.0,26,0.00,,,0.00,Wunderground v.1.15,2013-03-10 22:31:00,
2013-03-10 18:41:00,58.2,24.3,30.19,SSE,148,8.0,11.0,27,0.00,,,0.00,Wunderground v.1.15,2013-03-10 22:41:00,
2013-03-10 18:50:00,57.6,23.8,30.18,SE,137,7.0,8.0,27,0.00,,,0.00,Wunderground v.1.15,2013-03-10 22:50:00,
2013-03-10 18:55:00,57.1,23.4,30.18,SE,128,6.0,7.0,27,0.00,,,0.00,Wunderground v.1.15,2013-03-10 22:55:00,
2013-03-10 19:00:00,56.8,23.1,30.18,SE,140,7.0,8.0,27,0.00,,,0.00,Wunderground v.1.15,2013-03-10 23:00:00,
2013-03-10 19:11:00,56.3,22.7,30.18,SSE,157,6.0,6.0,27,0.00,,,0.00,Wunderground v.1.15,2013-03-10 23:11:00,
2013-03-10 19:16:00,56.0,22.4,30.18,SE,144,5.0,7.0,27,0.00,,,0.00,Wunderground v.1.15,2013-03-10 23:16:00,
2013-03-10 19:26:00,55.5,22.9,30.19,SE,139,5.0,5.0,28,0.00,,,0.00,Wunderground v.1.15,2013-03-10 23:26:00,
2013-03-10 19:31:00,55.3,22.7,30.19,SSE,159,6.0,6.0,28,0.00,,,0.00,Wunderground v.1.15,2013-03-10 23:31:00,
2013-03-10 19:41:00,55.2,22.6,30.19,SSE,155,6.0,6.0,28,0.00,,,0.00,Wunderground v.1.15,2013-03-10 23:41:00,
2013-03-10 19:46:00,55.2,22.6,30.19,South,185,6.0,6.0,28,0.00,,,0.00,Wunderground v.1.15,2013-03-10 23:46:00,
2013-03-10 19:51:00,55.0,21.6,30.19,SE,139,7.0,7.0,27,0.00,,,0.00,Wunderground v.1.15,2013-03-10 23:51:00,
2013-03-10 20:01:00,54.7,22.2,30.20,South,171,6.0,6.0,28,0.00,,,0.00,Wunderground v.1.15,2013-03-11 00:01:00,
2013-03-10 20:10:00,54.6,22.1,30.20,SSE,148,6.0,11.0,28,0.00,,,0.00,Wunderground v.1.15,2013-03-11 00:10:00,
2013-03-10 20:16:00,54.6,21.2,30.20,SE,141,7.0,7.0,27,0.00,,,0.00,Wunderground v.1.15,2013-03-11 00:16:00,
2013-03-10 20:25:00,54.1,21.7,30.19,SSE,148,6.0,7.0,28,0.00,,,0.00,Wunderground v.1.15,2013-03-11 00:25:00,
2013-03-10 20:30:00,54.0,21.6,30.19,SE,139,6.0,8.0,28,0.00,,,0.00,Wunderground v.1.15,2013-03-11 00:30:00,
2013-03-10 20:36:00,53.8,21.4,30.18,SE,140,6.0,8.0,28,0.00,,,0.00,Wunderground v.1.15,2013-03-11 00:36:00,
2013-03-10 20:50:00,53.5,22.0,30.19,SSE,164,6.0,6.0,29,0.00,,,0.00,Wunderground v.1.15,2013-03-11 00:50:00,
2013-03-10 21:01:00,53.2,21.7,30.19,SSE,147,6.0,8.0,29,0.00,,,0.00,Wunderground v.1.15,2013-03-11 01:01:00,
2013-03-10 21:11:00,52.8,22.2,30.19,South,175,5.0,5.0,30,0.00,,,0.00,Wunderground v.1.15,2013-03-11 01:11:00,
2013-03-10 21:20:00,52.5,21.1,30.20,South,179,5.0,9.0,29,0.00,,,0.00,Wunderground v.1.15,2013-03-11 01:20:00,
2013-03-10 21:31:00,52.3,21.7,30.19,SSE,158,6.0,6.0,30,0.00,,,0.00,Wunderground v.1.15,2013-03-11 01:31:00,
2013-03-10 21:40:00,52.2,20.9,30.19,SE,144,6.0,6.0,29,0.00,,,0.00,Wunderground v.1.15,2013-03-11 01:40:00,
2013-03-10 21:50:00,52.2,20.9,30.20,South,187,6.0,6.0,29,0.00,,,0.00,Wunderground v.1.15,2013-03-11 01:50:00,
2013-03-10 21:56:00,52.1,20.8,30.20,South,182,5.0,6.0,29,0.00,,,0.00,Wunderground v.1.15,2013-03-11 01:56:00,
2013-03-10 22:06:00,51.9,20.6,30.19,SSE,150,5.0,5.0,29,0.00,,,0.00,Wunderground v.1.15,2013-03-11 02:06:00,
2013-03-10 22:20:00,51.8,20.5,30.20,SSW,193,5.0,6.0,29,0.00,,,0.00,Wunderground v.1.15,2013-03-11 02:20:00,
2013-03-10 22:26:00,51.8,21.3,30.20,SSE,163,6.0,6.0,30,0.00,,,0.00,Wunderground v.1.15,2013-03-11 02:26:00,
2013-03-10 22:35:00,51.3,20.1,30.20,SSW,196,4.0,11.0,29,0.00,,,0.00,Wunderground v.1.15,2013-03-11 02:35:00,
2013-03-10 22:40:00,51.3,20.1,30.20,South,188,6.0,6.0,29,0.00,,,0.00,Wunderground v.1.15,2013-03-11 02:40:00,
2013-03-10 22:45:00,51.2,20.8,30.20,SSE,153,5.0,11.0,30,0.00,,,0.00,Wunderground v.1.15,2013-03-11 02:45:00,
2013-03-10 23:01:00,50.4,20.1,30.19,SE,131,5.0,7.0,30,0.00,,,0.00,Wunderground v.1.15,2013-03-11 03:01:00,
2013-03-10 23:10:00,50.3,20.0,30.20,South,185,5.0,7.0,30,0.00,,,0.00,Wunderground v.1.15,2013-03-11 03:10:00,
2013-03-10 23:20:00,49.5,19.3,30.20,SE,142,3.0,4.0,30,0.00,,,0.00,Wunderground v.1.15,2013-03-11 03:20:00,
2013-03-10 23:26:00,49.4,19.2,30.20,SE,143,3.0,5.0,30,0.00,,,0.00,Wunderground v.1.15,2013-03-11 03:26:00,
2013-03-10 23:31:00,49.1,19.7,30.20,SSE,163,3.0,3.0,31,0.00,,,0.00,Wunderground v.1.15,2013-03-11 03:31:00,
2013-03-10 23:40:00,48.4,20.6,30.20,SSE,163,2.0,2.0,33,0.00,,,0.00,Wunderground v.1.15,2013-03-11 03:40:00,
2013-03-10 23:51:00,48.2,19.7,30.20,SSE,152,4.0,5.0,32,0.00,,,0.00,Wunderground v.1.15,2013-03-11 03:51:00,
2013-03-10 23:56:00,48.6,20.0,30.20,SSE,162,5.0,7.0,32,0.00,,,0.00,Wunderground v.1.15,2013-03-11 03:56:00,